Data supplied by UK-AIR on 28/3/2020
All Data GMT hour ending 
Status: R =Ratified P=Provisional,P*=As supplied
,,Sibton,,,,,,,,,,,,,,,,,,,,,,,
Date,time,"Ozone",status,unit
 
01-01-2019,01:00,67.17802,R,ugm-3
01-01-2019,02:00,65.23486,R,ugm-3
01-01-2019,03:00,64.88786,R,ugm-3
01-01-2019,04:00,64.95726,R,ugm-3
01-01-2019,05:00,65.30426,R,ugm-3
01-01-2019,06:00,64.26327,R,ugm-3
01-01-2019,07:00,,,
01-01-2019,08:00,59.96055,R,ugm-3
01-01-2019,09:00,57.87859,R,ugm-3
01-01-2019,10:00,56.35181,R,ugm-3
01-01-2019,11:00,55.44963,R,ugm-3
01-01-2019,12:00,54.82504,R,ugm-3
01-01-2019,13:00,64.28062,R,ugm-3
01-01-2019,14:00,71.35930,R,ugm-3
01-01-2019,15:00,72.03594,R,ugm-3
01-01-2019,16:00,70.11012,R,ugm-3
01-01-2019,17:00,65.00931,R,ugm-3
01-01-2019,18:00,66.83103,R,ugm-3
01-01-2019,19:00,69.53758,R,ugm-3
01-01-2019,20:00,76.98060,R,ugm-3
01-01-2019,21:00,74.37815,R,ugm-3
01-01-2019,22:00,75.52323,R,ugm-3
01-01-2019,23:00,80.05150,R,ugm-3
01-01-2019,24:00,81.04043,R,ugm-3
02-01-2019,01:00,80.88994,R,ugm-3
02-01-2019,02:00,79.01524,R,ugm-3
02-01-2019,03:00,78.63336,R,ugm-3
02-01-2019,04:00,78.52921,R,ugm-3
02-01-2019,05:00,76.86280,R,ugm-3
02-01-2019,06:00,76.44620,R,ugm-3
02-01-2019,07:00,73.79038,R,ugm-3
02-01-2019,08:00,71.13455,R,ugm-3
02-01-2019,09:00,72.28020,R,ugm-3
02-01-2019,10:00,70.66587,R,ugm-3
02-01-2019,11:00,71.70737,R,ugm-3
02-01-2019,12:00,68.89532,R,ugm-3
02-01-2019,13:00,75.97753,R,ugm-3
02-01-2019,14:00,75.66508,R,ugm-3
02-01-2019,15:00,72.64472,R,ugm-3
02-01-2019,16:00,75.82130,R,ugm-3
02-01-2019,17:00,69.10362,R,ugm-3
02-01-2019,18:00,63.21914,R,ugm-3
02-01-2019,19:00,59.46973,R,ugm-3
02-01-2019,20:00,55.61618,R,ugm-3
02-01-2019,21:00,54.93920,R,ugm-3
02-01-2019,22:00,53.84562,R,ugm-3
02-01-2019,23:00,54.93920,R,ugm-3
02-01-2019,24:00,56.44938,R,ugm-3
03-01-2019,01:00,62.10446,R,ugm-3
03-01-2019,02:00,54.74084,R,ugm-3
03-01-2019,03:00,54.65401,R,ugm-3
03-01-2019,04:00,51.63214,R,ugm-3
03-01-2019,05:00,49.02709,R,ugm-3
03-01-2019,06:00,40.69092,R,ugm-3
03-01-2019,07:00,40.22201,R,ugm-3
03-01-2019,08:00,45.01531,R,ugm-3
03-01-2019,09:00,43.71278,R,ugm-3
03-01-2019,10:00,43.81699,R,ugm-3
03-01-2019,11:00,50.32962,R,ugm-3
03-01-2019,12:00,55.90443,R,ugm-3
03-01-2019,13:00,62.15656,R,ugm-3
03-01-2019,14:00,67.93977,R,ugm-3
03-01-2019,15:00,66.06414,R,ugm-3
03-01-2019,16:00,66.74145,R,ugm-3
03-01-2019,17:00,63.82379,R,ugm-3
03-01-2019,18:00,68.35658,R,ugm-3
03-01-2019,19:00,67.15826,R,ugm-3
03-01-2019,20:00,63.61539,R,ugm-3
03-01-2019,21:00,57.88427,R,ugm-3
03-01-2019,22:00,67.67927,R,ugm-3
03-01-2019,23:00,65.59523,R,ugm-3
03-01-2019,24:00,58.87419,R,ugm-3
04-01-2019,01:00,50.87599,R,ugm-3
04-01-2019,02:00,55.67167,R,ugm-3
04-01-2019,03:00,59.58120,R,ugm-3
04-01-2019,04:00,50.09408,R,ugm-3
04-01-2019,05:00,40.13782,R,ugm-3
04-01-2019,06:00,31.48473,R,ugm-3
04-01-2019,07:00,26.21990,R,ugm-3
04-01-2019,08:00,38.78251,R,ugm-3
04-01-2019,09:00,43.16119,R,ugm-3
04-01-2019,10:00,40.45058,R,ugm-3
04-01-2019,11:00,37.11445,R,ugm-3
04-01-2019,12:00,37.53147,R,ugm-3
04-01-2019,13:00,38.00061,R,ugm-3
04-01-2019,14:00,41.44099,R,ugm-3
04-01-2019,15:00,43.47395,R,ugm-3
04-01-2019,16:00,42.58779,R,ugm-3
04-01-2019,17:00,37.47934,R,ugm-3
04-01-2019,18:00,29.29540,R,ugm-3
04-01-2019,19:00,20.59018,R,ugm-3
04-01-2019,20:00,15.84662,R,ugm-3
04-01-2019,21:00,14.59557,R,ugm-3
04-01-2019,22:00,16.15938,R,ugm-3
04-01-2019,23:00,22.20612,R,ugm-3
04-01-2019,24:00,22.88377,R,ugm-3
05-01-2019,01:00,27.32818,R,ugm-3
05-01-2019,02:00,24.54669,R,ugm-3
05-01-2019,03:00,24.25115,R,ugm-3
05-01-2019,04:00,26.85881,R,ugm-3
05-01-2019,05:00,36.82003,R,ugm-3
05-01-2019,06:00,46.10327,R,ugm-3
05-01-2019,07:00,52.15302,R,ugm-3
05-01-2019,08:00,52.10087,R,ugm-3
05-01-2019,09:00,54.81282,R,ugm-3
05-01-2019,10:00,61.12334,R,ugm-3
05-01-2019,11:00,60.18458,R,ugm-3
05-01-2019,12:00,56.84679,R,ugm-3
05-01-2019,13:00,57.31617,R,ugm-3
05-01-2019,14:00,55.49081,R,ugm-3
05-01-2019,15:00,56.53387,R,ugm-3
05-01-2019,16:00,59.45444,R,ugm-3
05-01-2019,17:00,59.55875,R,ugm-3
05-01-2019,18:00,55.49081,R,ugm-3
05-01-2019,19:00,50.58843,R,ugm-3
05-01-2019,20:00,43.96500,R,ugm-3
05-01-2019,21:00,39.27122,R,ugm-3
05-01-2019,22:00,36.82003,R,ugm-3
05-01-2019,23:00,34.94252,R,ugm-3
05-01-2019,24:00,35.09898,R,ugm-3
06-01-2019,01:00,32.90756,R,ugm-3
06-01-2019,02:00,27.68966,R,ugm-3
06-01-2019,03:00,27.13308,R,ugm-3
06-01-2019,04:00,29.06370,R,ugm-3
06-01-2019,05:00,32.19445,R,ugm-3
06-01-2019,06:00,35.89915,R,ugm-3
06-01-2019,07:00,38.19503,R,ugm-3
06-01-2019,08:00,36.47312,R,ugm-3
06-01-2019,09:00,34.38596,R,ugm-3
06-01-2019,10:00,37.98631,R,ugm-3
06-01-2019,11:00,40.07347,R,ugm-3
06-01-2019,12:00,41.43013,R,ugm-3
06-01-2019,13:00,45.18702,R,ugm-3
06-01-2019,14:00,40.90834,R,ugm-3
06-01-2019,15:00,41.11705,R,ugm-3
06-01-2019,16:00,36.57748,R,ugm-3
06-01-2019,17:00,33.44674,R,ugm-3
06-01-2019,18:00,28.28102,R,ugm-3
06-01-2019,19:00,25.20246,R,ugm-3
06-01-2019,20:00,22.80222,R,ugm-3
06-01-2019,21:00,22.28043,R,ugm-3
06-01-2019,22:00,19.56713,R,ugm-3
06-01-2019,23:00,18.62790,R,ugm-3
06-01-2019,24:00,14.76666,R,ugm-3
07-01-2019,01:00,10.64982,R,ugm-3
07-01-2019,02:00,8.42241,R,ugm-3
07-01-2019,03:00,14.09535,R,ugm-3
07-01-2019,04:00,19.68128,R,ugm-3
07-01-2019,05:00,25.99808,R,ugm-3
07-01-2019,06:00,38.00523,R,ugm-3
07-01-2019,07:00,48.39402,R,ugm-3
07-01-2019,08:00,54.81524,R,ugm-3
07-01-2019,09:00,51.89175,R,ugm-3
07-01-2019,10:00,49.54253,R,ugm-3
07-01-2019,11:00,52.15278,R,ugm-3
07-01-2019,12:00,52.41381,R,ugm-3
07-01-2019,13:00,51.63073,R,ugm-3
07-01-2019,14:00,51.99617,R,ugm-3
07-01-2019,15:00,51.57853,R,ugm-3
07-01-2019,16:00,51.94396,R,ugm-3
07-01-2019,17:00,52.15278,R,ugm-3
07-01-2019,18:00,53.51011,R,ugm-3
07-01-2019,19:00,53.14468,R,ugm-3
07-01-2019,20:00,52.93586,R,ugm-3
07-01-2019,21:00,53.04027,R,ugm-3
07-01-2019,22:00,73.87005,R,ugm-3
07-01-2019,23:00,74.60092,R,ugm-3
07-01-2019,24:00,72.56493,R,ugm-3
08-01-2019,01:00,70.54663,R,ugm-3
08-01-2019,02:00,68.31811,R,ugm-3
08-01-2019,03:00,68.94488,R,ugm-3
08-01-2019,04:00,68.42257,R,ugm-3
08-01-2019,05:00,68.78819,R,ugm-3
08-01-2019,06:00,69.51942,R,ugm-3
08-01-2019,07:00,68.16141,R,ugm-3
08-01-2019,08:00,67.63911,R,ugm-3
08-01-2019,09:00,68.00472,R,ugm-3
08-01-2019,10:00,66.96010,R,ugm-3
08-01-2019,11:00,66.75118,R,ugm-3
08-01-2019,12:00,67.58687,R,ugm-3
08-01-2019,13:00,68.37034,R,ugm-3
08-01-2019,14:00,70.51181,R,ugm-3
08-01-2019,15:00,70.72073,R,ugm-3
08-01-2019,16:00,70.61627,R,ugm-3
08-01-2019,17:00,73.07113,R,ugm-3
08-01-2019,18:00,73.75013,R,ugm-3
08-01-2019,19:00,76.57060,R,ugm-3
08-01-2019,20:00,74.89921,R,ugm-3
08-01-2019,21:00,74.06351,R,ugm-3
08-01-2019,22:00,73.07113,R,ugm-3
08-01-2019,23:00,77.04068,R,ugm-3
08-01-2019,24:00,70.66850,R,ugm-3
09-01-2019,01:00,64.17154,R,ugm-3
09-01-2019,02:00,73.71714,R,ugm-3
09-01-2019,03:00,78.75123,R,ugm-3
09-01-2019,04:00,80.94602,R,ugm-3
09-01-2019,05:00,80.52796,R,ugm-3
09-01-2019,06:00,80.73699,R,ugm-3
09-01-2019,07:00,73.83907,R,ugm-3
09-01-2019,08:00,73.78682,R,ugm-3
09-01-2019,09:00,73.10747,R,ugm-3
09-01-2019,10:00,74.77970,R,ugm-3
09-01-2019,11:00,75.92935,R,ugm-3
09-01-2019,12:00,75.35452,R,ugm-3
09-01-2019,13:00,75.35452,R,ugm-3
09-01-2019,14:00,73.21199,R,ugm-3
09-01-2019,15:00,70.12883,R,ugm-3
09-01-2019,16:00,60.93161,R,ugm-3
09-01-2019,17:00,63.75348,R,ugm-3
09-01-2019,18:00,61.24515,R,ugm-3
09-01-2019,19:00,58.42327,R,ugm-3
09-01-2019,20:00,62.86511,R,ugm-3
09-01-2019,21:00,71.01720,R,ugm-3
09-01-2019,22:00,58.00522,R,ugm-3
09-01-2019,23:00,60.25227,R,ugm-3
09-01-2019,24:00,62.18577,R,ugm-3
10-01-2019,01:00,58.13862,R,ugm-3
10-01-2019,02:00,54.44396,R,ugm-3
10-01-2019,03:00,52.91033,R,ugm-3
10-01-2019,04:00,48.98911,R,ugm-3
10-01-2019,05:00,42.14005,R,ugm-3
10-01-2019,06:00,41.77406,R,ugm-3
10-01-2019,07:00,43.18570,R,ugm-3
10-01-2019,08:00,41.19895,R,ugm-3
10-01-2019,09:00,36.49349,R,ugm-3
10-01-2019,10:00,14.48237,R,ugm-3
10-01-2019,11:00,17.88076,R,ugm-3
10-01-2019,12:00,18.19446,R,ugm-3
10-01-2019,13:00,22.74308,R,ugm-3
10-01-2019,14:00,27.86680,R,ugm-3
10-01-2019,15:00,27.91909,R,ugm-3
10-01-2019,16:00,27.13484,R,ugm-3
10-01-2019,17:00,20.54719,R,ugm-3
10-01-2019,18:00,14.32552,R,ugm-3
10-01-2019,19:00,12.07736,R,ugm-3
10-01-2019,20:00,10.14289,R,ugm-3
10-01-2019,21:00,10.61344,R,ugm-3
10-01-2019,22:00,9.88148,R,ugm-3
10-01-2019,23:00,10.92713,R,ugm-3
10-01-2019,24:00,14.01183,R,ugm-3
11-01-2019,01:00,24.82930,R,ugm-3
11-01-2019,02:00,37.66242,R,ugm-3
11-01-2019,03:00,45.77030,R,ugm-3
11-01-2019,04:00,47.28726,R,ugm-3
11-01-2019,05:00,39.96401,R,ugm-3
11-01-2019,06:00,36.30239,R,ugm-3
11-01-2019,07:00,37.81935,R,ugm-3
11-01-2019,08:00,39.54554,R,ugm-3
11-01-2019,09:00,37.66242,R,ugm-3
11-01-2019,10:00,39.33631,R,ugm-3
11-01-2019,11:00,42.63177,R,ugm-3
11-01-2019,12:00,45.40414,R,ugm-3
11-01-2019,13:00,45.50876,R,ugm-3
11-01-2019,14:00,47.02572,R,ugm-3
11-01-2019,15:00,52.98893,R,ugm-3
11-01-2019,16:00,48.54267,R,ugm-3
11-01-2019,17:00,41.69021,R,ugm-3
11-01-2019,18:00,33.79156,R,ugm-3
11-01-2019,19:00,30.33917,R,ugm-3
11-01-2019,20:00,29.55454,R,ugm-3
11-01-2019,21:00,23.59132,R,ugm-3
11-01-2019,22:00,22.59745,R,ugm-3
11-01-2019,23:00,30.18224,R,ugm-3
11-01-2019,24:00,41.95175,R,ugm-3
12-01-2019,01:00,51.00908,R,ugm-3
12-01-2019,02:00,48.28767,R,ugm-3
12-01-2019,03:00,45.06035,R,ugm-3
12-01-2019,04:00,42.33893,R,ugm-3
12-01-2019,05:00,43.64731,R,ugm-3
12-01-2019,06:00,49.77049,R,ugm-3
12-01-2019,07:00,51.28820,R,ugm-3
12-01-2019,08:00,51.81155,R,ugm-3
12-01-2019,09:00,50.45084,R,ugm-3
12-01-2019,10:00,50.55551,R,ugm-3
12-01-2019,11:00,52.85825,R,ugm-3
12-01-2019,12:00,54.68997,R,ugm-3
12-01-2019,13:00,58.30108,R,ugm-3
12-01-2019,14:00,61.28417,R,ugm-3
12-01-2019,15:00,64.73827,R,ugm-3
12-01-2019,16:00,64.99995,R,ugm-3
12-01-2019,17:00,63.37757,R,ugm-3
12-01-2019,18:00,61.28417,R,ugm-3
12-01-2019,19:00,62.38320,R,ugm-3
12-01-2019,20:00,59.60945,R,ugm-3
12-01-2019,21:00,53.64327,R,ugm-3
12-01-2019,22:00,50.71252,R,ugm-3
12-01-2019,23:00,51.13120,R,ugm-3
12-01-2019,24:00,53.69561,R,ugm-3
13-01-2019,01:00,58.15549,R,ugm-3
13-01-2019,02:00,63.95009,R,ugm-3
13-01-2019,03:00,67.38846,R,ugm-3
13-01-2019,04:00,69.90178,R,ugm-3
13-01-2019,05:00,69.32581,R,ugm-3
13-01-2019,06:00,67.91206,R,ugm-3
13-01-2019,07:00,68.27859,R,ugm-3
13-01-2019,08:00,64.87513,R,ugm-3
13-01-2019,09:00,64.97986,R,ugm-3
13-01-2019,10:00,65.50346,R,ugm-3
13-01-2019,11:00,64.87513,R,ugm-3
13-01-2019,12:00,67.02193,R,ugm-3
13-01-2019,13:00,67.12665,R,ugm-3
13-01-2019,14:00,68.06915,R,ugm-3
13-01-2019,15:00,67.75498,R,ugm-3
13-01-2019,16:00,64.87513,R,ugm-3
13-01-2019,17:00,63.14723,R,ugm-3
13-01-2019,18:00,70.32067,R,ugm-3
13-01-2019,19:00,74.71898,R,ugm-3
13-01-2019,20:00,80.32159,R,ugm-3
13-01-2019,21:00,78.22716,R,ugm-3
13-01-2019,22:00,75.71384,R,ugm-3
13-01-2019,23:00,74.09065,R,ugm-3
13-01-2019,24:00,71.47261,R,ugm-3
14-01-2019,01:00,70.75719,R,ugm-3
14-01-2019,02:00,68.66172,R,ugm-3
14-01-2019,03:00,68.52202,R,ugm-3
14-01-2019,04:00,67.36951,R,ugm-3
14-01-2019,05:00,63.49288,R,ugm-3
14-01-2019,06:00,62.39276,R,ugm-3
14-01-2019,07:00,59.93057,R,ugm-3
14-01-2019,08:00,57.57317,R,ugm-3
14-01-2019,09:00,53.32983,R,ugm-3
14-01-2019,10:00,48.56263,R,ugm-3
14-01-2019,11:00,51.60106,R,ugm-3
14-01-2019,12:00,52.64880,R,ugm-3
14-01-2019,13:00,55.73963,R,ugm-3
14-01-2019,14:00,63.70243,R,ugm-3
14-01-2019,15:00,65.69313,R,ugm-3
14-01-2019,16:00,50.23900,R,ugm-3
14-01-2019,17:00,49.71514,R,ugm-3
14-01-2019,18:00,43.63826,R,ugm-3
14-01-2019,19:00,40.33789,R,ugm-3
14-01-2019,20:00,36.25171,R,ugm-3
14-01-2019,21:00,34.20862,R,ugm-3
14-01-2019,22:00,23.73125,R,ugm-3
14-01-2019,23:00,24.88376,R,ugm-3
14-01-2019,24:00,28.39368,R,ugm-3
15-01-2019,01:00,31.02841,R,ugm-3
15-01-2019,02:00,31.16817,R,ugm-3
15-01-2019,03:00,34.64489,R,ugm-3
15-01-2019,04:00,41.40615,R,ugm-3
15-01-2019,05:00,45.54677,R,ugm-3
15-01-2019,06:00,49.32049,R,ugm-3
15-01-2019,07:00,47.27639,R,ugm-3
15-01-2019,08:00,47.69569,R,ugm-3
15-01-2019,09:00,48.95360,R,ugm-3
15-01-2019,10:00,51.99355,R,ugm-3
15-01-2019,11:00,55.50521,R,ugm-3
15-01-2019,12:00,54.98108,R,ugm-3
15-01-2019,13:00,53.82800,R,ugm-3
15-01-2019,14:00,56.71070,R,ugm-3
15-01-2019,15:00,53.67076,R,ugm-3
15-01-2019,16:00,47.90534,R,ugm-3
15-01-2019,17:00,42.87371,R,ugm-3
15-01-2019,18:00,39.46688,R,ugm-3
15-01-2019,19:00,42.61165,R,ugm-3
15-01-2019,20:00,47.53845,R,ugm-3
15-01-2019,21:00,44.91781,R,ugm-3
15-01-2019,22:00,37.16071,R,ugm-3
15-01-2019,23:00,42.19234,R,ugm-3
15-01-2019,24:00,46.69985,R,ugm-3
16-01-2019,01:00,50.55103,R,ugm-3
16-01-2019,02:00,57.33312,R,ugm-3
16-01-2019,03:00,58.62661,R,ugm-3
16-01-2019,04:00,59.25588,R,ugm-3
16-01-2019,05:00,62.71684,R,ugm-3
16-01-2019,06:00,62.92660,R,ugm-3
16-01-2019,07:00,62.50709,R,ugm-3
16-01-2019,08:00,61.35343,R,ugm-3
16-01-2019,09:00,58.88881,R,ugm-3
16-01-2019,10:00,57.99735,R,ugm-3
16-01-2019,11:00,58.04979,R,ugm-3
16-01-2019,12:00,57.57784,R,ugm-3
16-01-2019,13:00,57.89247,R,ugm-3
16-01-2019,14:00,57.94491,R,ugm-3
16-01-2019,15:00,57.73515,R,ugm-3
16-01-2019,16:00,54.01200,R,ugm-3
16-01-2019,17:00,55.06077,R,ugm-3
16-01-2019,18:00,68.69487,R,ugm-3
16-01-2019,19:00,67.06927,R,ugm-3
16-01-2019,20:00,61.98270,R,ugm-3
16-01-2019,21:00,56.26687,R,ugm-3
16-01-2019,22:00,54.37907,R,ugm-3
16-01-2019,23:00,53.22542,R,ugm-3
16-01-2019,24:00,50.91811,R,ugm-3
17-01-2019,01:00,48.75730,R,ugm-3
17-01-2019,02:00,41.90190,R,ugm-3
17-01-2019,03:00,41.55213,R,ugm-3
17-01-2019,04:00,60.49193,R,ugm-3
17-01-2019,05:00,56.39968,R,ugm-3
17-01-2019,06:00,46.22150,R,ugm-3
17-01-2019,07:00,47.95284,R,ugm-3
17-01-2019,08:00,64.68912,R,ugm-3
17-01-2019,09:00,71.71940,R,ugm-3
17-01-2019,10:00,68.51905,R,ugm-3
17-01-2019,11:00,67.41729,R,ugm-3
17-01-2019,12:00,68.25672,R,ugm-3
17-01-2019,13:00,68.88630,R,ugm-3
17-01-2019,14:00,68.62398,R,ugm-3
17-01-2019,15:00,71.24722,R,ugm-3
17-01-2019,16:00,74.39511,R,ugm-3
17-01-2019,17:00,66.42046,R,ugm-3
17-01-2019,18:00,64.42679,R,ugm-3
17-01-2019,19:00,61.17398,R,ugm-3
17-01-2019,20:00,56.81940,R,ugm-3
17-01-2019,21:00,53.88137,R,ugm-3
17-01-2019,22:00,49.26446,R,ugm-3
17-01-2019,23:00,43.80812,R,ugm-3
17-01-2019,24:00,39.40108,R,ugm-3
18-01-2019,01:00,38.42326,R,ugm-3
18-01-2019,02:00,36.39362,R,ugm-3
18-01-2019,03:00,36.00869,R,ugm-3
18-01-2019,04:00,33.69909,R,ugm-3
18-01-2019,05:00,28.86994,R,ugm-3
18-01-2019,06:00,26.29789,R,ugm-3
18-01-2019,07:00,22.36108,R,ugm-3
18-01-2019,08:00,13.38515,R,ugm-3
18-01-2019,09:00,11.96790,R,ugm-3
18-01-2019,10:00,16.79706,R,ugm-3
18-01-2019,11:00,21.15379,R,ugm-3
18-01-2019,12:00,23.09595,R,ugm-3
18-01-2019,13:00,28.13507,R,ugm-3
18-01-2019,14:00,45.03710,R,ugm-3
18-01-2019,15:00,61.83416,R,ugm-3
18-01-2019,16:00,58.21229,R,ugm-3
18-01-2019,17:00,53.33065,R,ugm-3
18-01-2019,18:00,53.90805,R,ugm-3
18-01-2019,19:00,60.20694,R,ugm-3
18-01-2019,20:00,64.40621,R,ugm-3
18-01-2019,21:00,62.88398,R,ugm-3
18-01-2019,22:00,60.67936,R,ugm-3
18-01-2019,23:00,57.16248,R,ugm-3
18-01-2019,24:00,46.08692,R,ugm-3
19-01-2019,01:00,31.15996,R,ugm-3
19-01-2019,02:00,32.14027,R,ugm-3
19-01-2019,03:00,40.96309,R,ugm-3
19-01-2019,04:00,48.00034,R,ugm-3
19-01-2019,05:00,54.45990,R,ugm-3
19-01-2019,06:00,57.97853,R,ugm-3
19-01-2019,07:00,58.76628,R,ugm-3
19-01-2019,08:00,59.13389,R,ugm-3
19-01-2019,09:00,57.40084,R,ugm-3
19-01-2019,10:00,60.39430,R,ugm-3
19-01-2019,11:00,62.38994,R,ugm-3
19-01-2019,12:00,61.23457,R,ugm-3
19-01-2019,13:00,60.55185,R,ugm-3
19-01-2019,14:00,63.17769,R,ugm-3
19-01-2019,15:00,66.38121,R,ugm-3
19-01-2019,16:00,62.81007,R,ugm-3
19-01-2019,17:00,59.02886,R,ugm-3
19-01-2019,18:00,54.72249,R,ugm-3
19-01-2019,19:00,54.19732,R,ugm-3
19-01-2019,20:00,50.52114,R,ugm-3
19-01-2019,21:00,49.15571,R,ugm-3
19-01-2019,22:00,49.05067,R,ugm-3
19-01-2019,23:00,48.63054,R,ugm-3
19-01-2019,24:00,47.10755,R,ugm-3
20-01-2019,01:00,48.89980,R,ugm-3
20-01-2019,02:00,30.82509,R,ugm-3
20-01-2019,03:00,33.25957,R,ugm-3
20-01-2019,04:00,33.73246,R,ugm-3
20-01-2019,05:00,35.25619,R,ugm-3
20-01-2019,06:00,33.99517,R,ugm-3
20-01-2019,07:00,32.83923,R,ugm-3
20-01-2019,08:00,34.78331,R,ugm-3
20-01-2019,09:00,36.72739,R,ugm-3
20-01-2019,10:00,37.62062,R,ugm-3
20-01-2019,11:00,34.73077,R,ugm-3
20-01-2019,12:00,31.21040,R,ugm-3
20-01-2019,13:00,36.83248,R,ugm-3
20-01-2019,14:00,44.66135,R,ugm-3
20-01-2019,15:00,41.82404,R,ugm-3
20-01-2019,16:00,34.15280,R,ugm-3
20-01-2019,17:00,34.25788,R,ugm-3
20-01-2019,18:00,31.78837,R,ugm-3
20-01-2019,19:00,32.73414,R,ugm-3
20-01-2019,20:00,31.78837,R,ugm-3
20-01-2019,21:00,29.79175,R,ugm-3
20-01-2019,22:00,26.32393,R,ugm-3
20-01-2019,23:00,23.80187,R,ugm-3
20-01-2019,24:00,29.31886,R,ugm-3
21-01-2019,01:00,31.68143,R,ugm-3
21-01-2019,02:00,31.68143,R,ugm-3
21-01-2019,03:00,37.84950,R,ugm-3
21-01-2019,04:00,35.95702,R,ugm-3
21-01-2019,05:00,36.32501,R,ugm-3
21-01-2019,06:00,42.52812,R,ugm-3
21-01-2019,07:00,28.59740,R,ugm-3
21-01-2019,08:00,22.91997,R,ugm-3
21-01-2019,09:00,16.40145,R,ugm-3
21-01-2019,10:00,12.87934,R,ugm-3
21-01-2019,11:00,17.55796,R,ugm-3
21-01-2019,12:00,20.34411,R,ugm-3
21-01-2019,13:00,29.59621,R,ugm-3
21-01-2019,14:00,39.63684,R,ugm-3
21-01-2019,15:00,49.73003,R,ugm-3
21-01-2019,16:00,38.16491,R,ugm-3
21-01-2019,17:00,21.29034,R,ugm-3
21-01-2019,18:00,10.14577,R,ugm-3
21-01-2019,19:00,2.26046,R,ugm-3
21-01-2019,20:00,2.62844,R,ugm-3
21-01-2019,21:00,13.66788,R,ugm-3
21-01-2019,22:00,23.70851,R,ugm-3
21-01-2019,23:00,37.37638,R,ugm-3
21-01-2019,24:00,52.30590,R,ugm-3
22-01-2019,01:00,55.04915,R,ugm-3
22-01-2019,02:00,54.06738,R,ugm-3
22-01-2019,03:00,55.54003,R,ugm-3
22-01-2019,04:00,46.65153,R,ugm-3
22-01-2019,05:00,48.80791,R,ugm-3
22-01-2019,06:00,50.38575,R,ugm-3
22-01-2019,07:00,57.32826,R,ugm-3
22-01-2019,08:00,68.47834,R,ugm-3
22-01-2019,09:00,64.42854,R,ugm-3
22-01-2019,10:00,61.69362,R,ugm-3
22-01-2019,11:00,62.32476,R,ugm-3
22-01-2019,12:00,66.05898,R,ugm-3
22-01-2019,13:00,67.53163,R,ugm-3
22-01-2019,14:00,67.89980,R,ugm-3
22-01-2019,15:00,67.05828,R,ugm-3
22-01-2019,16:00,59.01129,R,ugm-3
22-01-2019,17:00,41.97060,R,ugm-3
22-01-2019,18:00,41.12908,R,ugm-3
22-01-2019,19:00,47.38785,R,ugm-3
22-01-2019,20:00,52.91030,R,ugm-3
22-01-2019,21:00,46.44115,R,ugm-3
22-01-2019,22:00,34.39695,R,ugm-3
22-01-2019,23:00,39.97200,R,ugm-3
22-01-2019,24:00,42.70692,R,ugm-3
23-01-2019,01:00,47.21832,R,ugm-3
23-01-2019,02:00,48.76186,R,ugm-3
23-01-2019,03:00,54.62030,R,ugm-3
23-01-2019,04:00,53.14692,R,ugm-3
23-01-2019,05:00,53.72575,R,ugm-3
23-01-2019,06:00,53.46264,R,ugm-3
23-01-2019,07:00,45.25381,R,ugm-3
23-01-2019,08:00,37.88691,R,ugm-3
23-01-2019,09:00,35.20326,R,ugm-3
23-01-2019,10:00,31.57243,R,ugm-3
23-01-2019,11:00,33.09843,R,ugm-3
23-01-2019,12:00,38.04478,R,ugm-3
23-01-2019,13:00,39.93912,R,ugm-3
23-01-2019,14:00,45.25381,R,ugm-3
23-01-2019,15:00,61.88196,R,ugm-3
23-01-2019,16:00,61.25051,R,ugm-3
23-01-2019,17:00,52.83120,R,ugm-3
23-01-2019,18:00,50.20016,R,ugm-3
23-01-2019,19:00,47.83223,R,ugm-3
23-01-2019,20:00,45.56954,R,ugm-3
23-01-2019,21:00,37.15022,R,ugm-3
23-01-2019,22:00,33.09843,R,ugm-3
23-01-2019,23:00,31.99339,R,ugm-3
23-01-2019,24:00,29.94119,R,ugm-3
24-01-2019,01:00,27.79746,R,ugm-3
24-01-2019,02:00,23.37513,R,ugm-3
24-01-2019,03:00,18.42634,R,ugm-3
24-01-2019,04:00,13.37226,R,ugm-3
24-01-2019,05:00,15.79401,R,ugm-3
24-01-2019,06:00,22.21691,R,ugm-3
24-01-2019,07:00,24.90189,R,ugm-3
24-01-2019,08:00,19.47928,R,ugm-3
24-01-2019,09:00,21.63779,R,ugm-3
24-01-2019,10:00,30.16656,R,ugm-3
24-01-2019,11:00,28.00804,R,ugm-3
24-01-2019,12:00,25.69159,R,ugm-3
24-01-2019,13:00,20.95339,R,ugm-3
24-01-2019,14:00,12.58256,R,ugm-3
24-01-2019,15:00,9.52905,R,ugm-3
24-01-2019,16:00,5.47526,R,ugm-3
24-01-2019,17:00,2.84292,R,ugm-3
24-01-2019,18:00,6.84407,R,ugm-3
24-01-2019,19:00,24.53336,R,ugm-3
24-01-2019,20:00,33.48330,R,ugm-3
24-01-2019,21:00,30.95626,R,ugm-3
24-01-2019,22:00,19.74251,R,ugm-3
24-01-2019,23:00,14.05667,R,ugm-3
24-01-2019,24:00,11.89815,R,ugm-3
25-01-2019,01:00,12.43075,R,ugm-3
25-01-2019,02:00,18.89194,R,ugm-3
25-01-2019,03:00,17.64535,R,ugm-3
25-01-2019,04:00,19.12018,R,ugm-3
25-01-2019,05:00,22.75460,R,ugm-3
25-01-2019,06:00,25.65159,R,ugm-3
25-01-2019,07:00,21.38511,R,ugm-3
25-01-2019,08:00,10.21850,R,ugm-3
25-01-2019,09:00,11.58799,R,ugm-3
25-01-2019,10:00,10.37652,R,ugm-3
25-01-2019,11:00,12.74679,R,ugm-3
25-01-2019,12:00,10.85057,R,ugm-3
25-01-2019,13:00,19.06751,R,ugm-3
25-01-2019,14:00,28.12721,R,ugm-3
25-01-2019,15:00,39.03046,R,ugm-3
25-01-2019,16:00,52.30397,R,ugm-3
25-01-2019,17:00,58.73004,R,ugm-3
25-01-2019,18:00,58.41400,R,ugm-3
25-01-2019,19:00,56.30709,R,ugm-3
25-01-2019,20:00,55.04295,R,ugm-3
25-01-2019,21:00,54.56890,R,ugm-3
25-01-2019,22:00,52.19863,R,ugm-3
25-01-2019,23:00,48.77490,R,ugm-3
25-01-2019,24:00,52.40932,R,ugm-3
26-01-2019,01:00,56.14164,R,ugm-3
26-01-2019,02:00,51.57442,R,ugm-3
26-01-2019,03:00,53.91073,R,ugm-3
26-01-2019,04:00,55.38629,R,ugm-3
26-01-2019,05:00,60.23457,R,ugm-3
26-01-2019,06:00,60.81426,R,ugm-3
26-01-2019,07:00,62.23712,R,ugm-3
26-01-2019,08:00,52.48787,R,ugm-3
26-01-2019,09:00,51.06500,R,ugm-3
26-01-2019,10:00,52.06628,R,ugm-3
26-01-2019,11:00,60.18187,R,ugm-3
26-01-2019,12:00,63.18570,R,ugm-3
26-01-2019,13:00,65.76793,R,ugm-3
26-01-2019,14:00,66.87460,R,ugm-3
26-01-2019,15:00,63.02760,R,ugm-3
26-01-2019,16:00,60.97235,R,ugm-3
26-01-2019,17:00,61.81553,R,ugm-3
26-01-2019,18:00,62.50061,R,ugm-3
26-01-2019,19:00,71.61748,R,ugm-3
26-01-2019,20:00,73.19844,R,ugm-3
26-01-2019,21:00,75.62258,R,ugm-3
26-01-2019,22:00,76.04417,R,ugm-3
26-01-2019,23:00,71.67018,R,ugm-3
26-01-2019,24:00,67.45429,R,ugm-3
27-01-2019,01:00,68.19054,R,ugm-3
27-01-2019,02:00,64.25377,R,ugm-3
27-01-2019,03:00,62.05691,R,ugm-3
27-01-2019,04:00,60.73879,R,ugm-3
27-01-2019,05:00,60.63334,R,ugm-3
27-01-2019,06:00,58.52436,R,ugm-3
27-01-2019,07:00,65.06221,R,ugm-3
27-01-2019,08:00,74.71082,R,ugm-3
27-01-2019,09:00,69.75470,R,ugm-3
27-01-2019,10:00,66.74940,R,ugm-3
27-01-2019,11:00,66.59123,R,ugm-3
27-01-2019,12:00,67.27665,R,ugm-3
27-01-2019,13:00,68.59476,R,ugm-3
27-01-2019,14:00,68.22569,R,ugm-3
27-01-2019,15:00,68.27842,R,ugm-3
27-01-2019,16:00,67.75117,R,ugm-3
27-01-2019,17:00,69.12201,R,ugm-3
27-01-2019,18:00,68.17297,R,ugm-3
27-01-2019,19:00,67.85662,R,ugm-3
27-01-2019,20:00,68.59476,R,ugm-3
27-01-2019,21:00,68.38386,R,ugm-3
27-01-2019,22:00,68.06752,R,ugm-3
27-01-2019,23:00,66.90758,R,ugm-3
27-01-2019,24:00,67.32937,R,ugm-3
28-01-2019,01:00,66.67679,R,ugm-3
28-01-2019,02:00,63.93376,R,ugm-3
28-01-2019,03:00,65.46353,R,ugm-3
28-01-2019,04:00,64.61952,R,ugm-3
28-01-2019,05:00,64.35577,R,ugm-3
28-01-2019,06:00,63.93376,R,ugm-3
28-01-2019,07:00,63.45901,R,ugm-3
28-01-2019,08:00,60.87422,R,ugm-3
28-01-2019,09:00,58.50045,R,ugm-3
28-01-2019,10:00,58.71145,R,ugm-3
28-01-2019,11:00,60.55772,R,ugm-3
28-01-2019,12:00,63.61726,R,ugm-3
28-01-2019,13:00,54.06939,R,ugm-3
28-01-2019,14:00,56.75968,R,ugm-3
28-01-2019,15:00,64.88327,R,ugm-3
28-01-2019,16:00,65.25253,R,ugm-3
28-01-2019,17:00,62.77325,R,ugm-3
28-01-2019,18:00,62.87875,R,ugm-3
28-01-2019,19:00,56.33767,R,ugm-3
28-01-2019,20:00,49.11083,R,ugm-3
28-01-2019,21:00,48.16132,R,ugm-3
28-01-2019,22:00,49.00533,R,ugm-3
28-01-2019,23:00,42.41151,R,ugm-3
28-01-2019,24:00,34.65716,R,ugm-3
29-01-2019,01:00,29.27343,R,ugm-3
29-01-2019,02:00,32.01781,R,ugm-3
29-01-2019,03:00,33.56592,R,ugm-3
29-01-2019,04:00,36.99640,R,ugm-3
29-01-2019,05:00,36.57419,R,ugm-3
29-01-2019,06:00,34.14647,R,ugm-3
29-01-2019,07:00,27.12718,R,ugm-3
29-01-2019,08:00,24.54113,R,ugm-3
29-01-2019,09:00,23.59115,R,ugm-3
29-01-2019,10:00,32.93260,R,ugm-3
29-01-2019,11:00,47.55173,R,ugm-3
29-01-2019,12:00,57.73761,R,ugm-3
29-01-2019,13:00,70.50955,R,ugm-3
29-01-2019,14:00,66.12909,R,ugm-3
29-01-2019,15:00,66.28742,R,ugm-3
29-01-2019,16:00,60.37644,R,ugm-3
29-01-2019,17:00,59.32091,R,ugm-3
29-01-2019,18:00,58.37093,R,ugm-3
29-01-2019,19:00,61.16809,R,ugm-3
29-01-2019,20:00,53.83214,R,ugm-3
29-01-2019,21:00,37.41862,R,ugm-3
29-01-2019,22:00,43.69903,R,ugm-3
29-01-2019,23:00,66.07632,R,ugm-3
29-01-2019,24:00,63.85970,R,ugm-3
30-01-2019,01:00,54.63308,R,ugm-3
30-01-2019,02:00,35.83536,R,ugm-3
30-01-2019,03:00,43.13972,R,ugm-3
30-01-2019,04:00,41.29163,R,ugm-3
30-01-2019,05:00,43.77335,R,ugm-3